Time,TemperatureF,DewpointF,PressureIn,WindDirection,WindDirectionDegrees,WindSpeedMPH,WindSpeedGustMPH,Humidity,HourlyPrecipIn,Conditions,Clouds,dailyrainin,SoftwareType,DateUTC
2017-01-24 00:02:00,33.3,27.0,29.88,NNW,347,0.0,0.0,76,0.00,,,0.00,weatherlink.com 1.10,2017-01-24 05:02:00,
2017-01-24 00:17:00,33.0,27.0,29.87,NNW,328,0.0,1.0,77,0.00,,,0.00,weatherlink.com 1.10,2017-01-24 05:17:00,
2017-01-24 00:32:00,32.5,27.0,29.86,NW,317,1.0,2.0,79,0.00,,,0.00,weatherlink.com 1.10,2017-01-24 05:32:00,
2017-01-24 00:47:00,32.1,27.0,29.85,NW,320,0.0,2.0,82,0.00,,,0.00,weatherlink.com 1.10,2017-01-24 05:47:00,
2017-01-24 01:02:00,31.9,28.0,29.84,NNW,344,1.0,2.0,84,0.00,,,0.00,weatherlink.com 1.10,2017-01-24 06:02:00,
2017-01-24 01:17:00,31.8,28.0,29.83,North,354,0.0,1.0,85,0.00,,,0.00,weatherlink.com 1.10,2017-01-24 06:17:00,
2017-01-24 01:32:00,31.9,28.0,29.82,NNW,339,0.0,5.0,85,0.00,,,0.00,weatherlink.com 1.10,2017-01-24 06:32:00,
2017-01-24 01:47:00,31.5,28.0,29.82,NW,321,0.0,5.0,87,0.00,,,0.00,weatherlink.com 1.10,2017-01-24 06:47:00,
2017-01-24 02:02:00,31.4,29.0,29.81,NNW,347,1.0,4.0,90,0.02,,,0.02,weatherlink.com 1.10,2017-01-24 07:02:00,
2017-01-24 02:18:00,31.5,29.0,29.79,NW,314,0.0,2.0,91,0.05,,,0.05,weatherlink.com 1.10,2017-01-24 07:18:00,
2017-01-24 02:33:00,31.5,30.0,29.78,NW,325,4.0,4.0,92,0.07,,,0.07,weatherlink.com 1.10,2017-01-24 07:33:00,
2017-01-24 02:48:00,31.6,30.0,29.76,NNW,333,0.0,4.0,93,0.10,,,0.10,weatherlink.com 1.10,2017-01-24 07:48:00,
2017-01-24 03:03:00,31.5,30.0,29.76,NNW,328,0.0,3.0,93,0.11,,,0.13,weatherlink.com 1.10,2017-01-24 08:03:00,
2017-01-24 03:18:00,31.4,30.0,29.75,NNW,342,1.0,5.0,93,0.11,,,0.16,weatherlink.com 1.10,2017-01-24 08:18:00,
2017-01-24 03:33:00,31.3,30.0,29.73,NNW,348,1.0,4.0,94,0.16,,,0.23,weatherlink.com 1.10,2017-01-24 08:33:00,
2017-01-24 03:48:00,31.3,30.0,29.72,North,5,5.0,5.0,94,0.22,,,0.32,weatherlink.com 1.10,2017-01-24 08:48:00,
2017-01-24 04:03:00,31.1,30.0,29.71,NNE,19,2.0,6.0,94,0.28,,,0.41,weatherlink.com 1.10,2017-01-24 09:03:00,
2017-01-24 04:18:00,31.0,30.0,29.70,North,356,1.0,7.0,94,0.35,,,0.51,weatherlink.com 1.10,2017-01-24 09:18:00,
2017-01-24 04:33:00,31.0,30.0,29.70,North,2,1.0,5.0,94,0.34,,,0.57,weatherlink.com 1.10,2017-01-24 09:33:00,
2017-01-24 04:48:00,31.2,30.0,29.69,NNW,343,2.0,4.0,94,0.30,,,0.63,weatherlink.com 1.10,2017-01-24 09:48:00,
2017-01-24 05:03:00,31.1,30.0,29.68,NNE,23,4.0,5.0,95,0.26,,,0.67,weatherlink.com 1.10,2017-01-24 10:03:00,
2017-01-24 05:18:00,31.0,30.0,29.68,North,2,0.0,1.0,95,0.21,,,0.72,weatherlink.com 1.10,2017-01-24 10:18:00,
2017-01-24 05:33:00,31.0,30.0,29.67,NNE,25,0.0,0.0,95,0.19,,,0.76,weatherlink.com 1.10,2017-01-24 10:33:00,
2017-01-24 05:48:00,31.0,30.0,29.67,NNE,22,0.0,0.0,96,0.13,,,0.76,weatherlink.com 1.10,2017-01-24 10:48:00,
2017-01-24 06:03:00,31.0,30.0,29.66,North,352,0.0,0.0,96,0.09,,,0.76,weatherlink.com 1.10,2017-01-24 11:03:00,
2017-01-24 06:18:00,30.8,30.0,29.66,NNW,343,0.0,0.0,96,0.04,,,0.76,weatherlink.com 1.10,2017-01-24 11:18:00,
2017-01-24 06:33:00,30.7,30.0,29.65,NNW,339,0.0,0.0,96,0.00,,,0.76,weatherlink.com 1.10,2017-01-24 11:33:00,
2017-01-24 06:48:00,30.6,30.0,29.65,North,351,0.0,0.0,96,0.00,,,0.76,weatherlink.com 1.10,2017-01-24 11:48:00,
2017-01-24 07:03:00,30.6,30.0,29.64,NNW,332,0.0,0.0,96,0.00,,,0.76,weatherlink.com 1.10,2017-01-24 12:03:00,
2017-01-24 07:18:00,30.6,30.0,29.63,North,11,0.0,0.0,96,0.00,,,0.76,weatherlink.com 1.10,2017-01-24 12:18:00,
2017-01-24 07:33:00,30.6,30.0,29.64,NNW,338,0.0,0.0,96,0.00,,,0.76,weatherlink.com 1.10,2017-01-24 12:33:00,
2017-01-24 07:48:00,30.5,30.0,29.64,NNE,15,0.0,0.0,96,0.00,,,0.76,weatherlink.com 1.10,2017-01-24 12:48:00,
2017-01-24 08:03:00,30.3,29.0,29.64,NNW,347,0.0,0.0,96,0.00,,,0.76,weatherlink.com 1.10,2017-01-24 13:03:00,
2017-01-24 08:18:00,30.1,29.0,29.64,NNW,347,0.0,0.0,97,0.00,,,0.76,weatherlink.com 1.10,2017-01-24 13:18:00,
2017-01-24 08:33:00,29.9,29.0,29.64,North,5,0.0,0.0,97,0.00,,,0.76,weatherlink.com 1.10,2017-01-24 13:33:00,
2017-01-24 08:48:00,29.7,29.0,29.64,NNE,29,0.0,0.0,97,0.00,,,0.76,weatherlink.com 1.10,2017-01-24 13:48:00,
2017-01-24 09:03:00,29.7,29.0,29.64,NNW,347,0.0,0.0,97,0.00,,,0.76,weatherlink.com 1.10,2017-01-24 14:03:00,
2017-01-24 09:19:00,29.7,29.0,29.64,NNW,342,0.0,0.0,97,0.00,,,0.76,weatherlink.com 1.10,2017-01-24 14:19:00,
2017-01-24 09:33:00,29.5,29.0,29.64,NNW,347,0.0,0.0,97,0.00,,,0.76,weatherlink.com 1.10,2017-01-24 14:33:00,
2017-01-24 09:49:00,29.4,29.0,29.64,North,352,0.0,0.0,97,0.00,,,0.76,weatherlink.com 1.10,2017-01-24 14:49:00,
2017-01-24 10:04:00,29.4,29.0,29.65,North,359,0.0,0.0,97,0.00,,,0.76,weatherlink.com 1.10,2017-01-24 15:04:00,
2017-01-24 10:19:00,29.4,29.0,29.64,NNW,334,0.0,0.0,97,0.00,,,0.76,weatherlink.com 1.10,2017-01-24 15:19:00,
2017-01-24 10:35:00,29.5,29.0,29.63,NNW,345,0.0,0.0,97,0.00,,,0.76,weatherlink.com 1.10,2017-01-24 15:35:00,
2017-01-24 10:49:00,29.5,29.0,29.62,NNE,23,0.0,0.0,97,0.00,,,0.76,weatherlink.com 1.10,2017-01-24 15:49:00,
2017-01-24 11:04:00,29.6,29.0,29.61,NNW,346,0.0,0.0,97,0.00,,,0.76,weatherlink.com 1.10,2017-01-24 16:04:00,
2017-01-24 11:19:00,29.7,29.0,29.61,North,351,0.0,0.0,97,0.00,,,0.76,weatherlink.com 1.10,2017-01-24 16:19:00,
2017-01-24 11:34:00,29.8,29.0,29.59,North,352,0.0,0.0,97,0.00,,,0.76,weatherlink.com 1.10,2017-01-24 16:34:00,
2017-01-24 11:49:00,30.0,29.0,29.58,NNW,337,0.0,0.0,97,0.00,,,0.76,weatherlink.com 1.10,2017-01-24 16:49:00,
2017-01-24 12:04:00,30.0,29.0,29.57,North,351,0.0,0.0,97,0.00,,,0.76,weatherlink.com 1.10,2017-01-24 17:04:00,
2017-01-24 12:19:00,30.2,30.0,29.56,North,350,0.0,0.0,98,0.00,,,0.76,weatherlink.com 1.10,2017-01-24 17:19:00,